Weather in Rayakoski

Russia / Murmansk Oblast     69°01′15″N   29°00′26″E
temp.,
°C
wind,
m/s
gust,
m/s
humid.,
%
clouds,
%
prec.,
mm/h
press.,
hPa
HPBL,
m
6 march, sat
sat600:00−11s398892 0.0 1004213
03:00−9s4129296 0.2 1000481
06:00−8ssw4994100 1.6 995527
09:00−8s41093100 2.0 992451
12:00−6s3693100 0.4 989442
15:00−5se4791100 0.8 987513
18:00−6ese4794100 0.5 986417
21:00−8e4795100 1.1 988329
7 march, sun
sun700:00−9ne3695100 0.4 992196
03:00−10ene3886100 0.3 997275
06:00−11ene4886100 0.0 1001268
09:00−11ene41080100 0.0 1006319
12:00−9ene2578100 0.0 1009288
15:00−8ne237659 0.0 1011334
18:00−10se118899 0.0 101321
21:00−13sse128898 0.0 101420
8 march, mon
mon800:00−14s128987 0.0 101520
03:00−14sse129191 0.0 101521
06:00−14sse2295100 0.1 101554
09:00−14sse2394100 0.3 101697
12:00−12se238685 0.1 1016226
15:00−11sse238451 0.1 1016275
18:00−13ssw11920 0.0 101720
21:00−16ssw129525 0.0 101720
9 march, tue
tue900:00−17sw229758 0.0 101820
03:00−17wsw129860 0.0 101921
06:00−17w249999 0.0 101976
09:00−17w229897 0.1 102061
12:00−13nnw118769 0.0 1021245
15:00−11s018167 0.0 1021319
18:00−15wsw119420 0.0 102120
21:00−17ssw229631 0.0 102123
10 march, wed
wed1000:00−18sw239540 0.0 102055
03:00−18sw379327 0.0 1019154
06:00−19sw38937 0.0 1018195
09:00−18sw411888 0.0 1016322
12:00−15sw5108348 0.0 1015509
15:00−14wsw5108474 0.0 1013723
18:00−15wsw31090100 0.0 1012557
21:00−17sw389579 0.0 1011194